Terminal Aerodrome Forecast
Issued by NWS

Home | Current Version | Previous Version | Graphics & Text | Print | Product List | Glossary On
Versions: 1 2 3 4 5 6 7 8 9 10 11 12 13 14 15 16 17
000
FTUS43 KMPX 211128
TAFAXN
TAF
KAXN 211128Z 2112/2212 31023G35KT P6SM -SN BKN025 OVC050
     FM211700 32021G32KT P6SM SCT025
     FM212300 32013G22KT P6SM SKC
     FM220100 32012KT P6SM SKC
     FM220800 27004KT P6SM FEW250=

USA.gov is the U.S. government's official web portal to all federal, state and local government web resources and services.